SCP
0 0 0 0 0 0 0 0 0 0 0 0 0 0 0 0 0 0 0 0 0 0 0 0 1 1 1 1 1 1 1 1 1 1 1 1 1 1 1 1 1 1 1 0 0 0 0 0 0
0 0 0 0 0 0 0 0 0 0 0 0 0 0 0 0 0 0 0 0 0 0 0 0 1 1 1 1 1 1 1 1 1 1 1 1 1 1 1 1 1 0 0 0 0 0 0 0 0
0 0 0 0 0 0 0 0 0 0 0 0 0 0 0 0 0 0 0 0 0 0 0 0 1 1 1 1 1 1 1 1 1 1 1 1 1 1 1 0 0 0 0 0 0 0 0 0 0
0 0 0 0 0 0 0 0 0 0 0 0 0 0 0 0 0 0 0 1 1 1 0 1 1 1 1 1 1 1 1 1 1 1 1 1 1 1 0 0 0 0 0 0 0 0 0 0 0
0 0 0 0 0 0 0 0 0 0 0 0 0 0 0 0 0 0 1 1 1 1 1 1 1 1 1 1 1 1 1 0 0 0 0 0 0 0 0 0 0 0 0 0 0 0 0 0 0
0 0 0 0 0 -0 0 0 0 0 0 0 1 1 0 0 0 1 1 1 1 1 1 1 1 1 1 1 1 1 1 0 0 0 0 0 0 0 0 0 0 0 0 0 0 0 0 0 0
0 0 0 0 -0 0 0 0 0 0 0 0 1 1 0 0 0 1 1 1 1 1 1 1 1 1 1 1 1 1 1 1 0 0 0 0 0 0 0 0 0 0 0 0 0 0 0 0 0
0 0 0 0 0 0 0 0 0 0 0 0 1 1 0 0 0 1 1 1 1 1 1 1 1 1 1 1 1 1 1 1 0 0 0 0 0 0 0 0 0 0 0 0 0 0 0 0 0
0 0 0 0 0 0 0 0 0 0 0 0 0 0 0 1 1 1 1 1 1 1 1 1 1 1 1 1 1 1 1 0 0 0 0 0 0 0 0 0 0 0 0 0 0 0 0 0 0
0 0 0 0 0 0 0 0 0 0 1 0 0 0 1 1 1 1 1 1 1 1 1 1 1 1 1 1 1 1 0 0 0 0 0 0 0 0 0 0 0 0 0 0 0 0 0 0 0
0 0 -0 0 0 0 0 0 0 0 0 0 1 1 1 1 1 1 1 1 1 1 1 1 1 1 1 1 1 1 0 0 0 0 0 0 0 0 0 0 0 0 0 0 0 0 0 0 0
0 0 0 0 0 0 0 0 0 0 0 0 1 2 2 2 2 1 1 2 2 1 1 1 1 1 1 1 1 1 1 0 0 0 0 0 0 0 0 0 0 0 0 0 0 0 0 0 0
-0 -0 0 0 0 0 0 0 0 0 0 1 1 2 2 2 2 2 2 1 1 1 1 1 1 1 1 1 1 1 1 0 0 0 0 0 0 0 0 0 0 0 0 0 0 0 0 0 0
0 0 0 0 0 0 0 0 0 0 0 1 2 2 3 3 3 3 2 2 1 1 1 1 1 1 1 1 1 1 1 1 0 0 0 0 0 0 0 0 0 0 0 0 0 0 0 0 0
0 0 0 0 0 0 0 0 0 0 1 1 2 2 3 3 3 3 3 2 2 2 2 1 1 1 1 1 1 1 1 1 0 0 0 0 0 0 0 0 0 0 0 0 0 0 0 0 0
0 0 0 0 0 0 0 0 0 0 1 1 2 2 3 3 3 3 3 2 2 2 2 2 2 2 2 2 1 1 1 1 1 0 0 0 0 0 0 0 0 0 0 0 0 0 0 0 0
0 0 0 0 0 0 0 0 0 0 1 1 2 3 3 3 3 3 3 3 2 2 2 3 3 3 3 2 2 1 1 1 1 1 1 1 0 0 0 0 0 0 0 0 0 0 0 0 0
0 0 0 0 0 0 0 0 0 0 1 1 2 3 3 3 3 3 3 3 3 3 3 4 5 5 4 3 2 2 1 1 1 1 1 1 0 0 0 0 0 0 0 0 0 0 0 0 0
0 0 0 0 0 0 0 0 0 0 1 1 2 2 3 3 3 3 4 4 4 4 4 5 6 6 5 4 3 3 2 1 0 0 0 0 0 0 0 0 0 0 0 0 0 0 0 0 0
0 0 0 0 0 0 0 0 0 0 0 1 1 2 2 2 3 3 4 4 4 5 5 6 7 7 6 5 4 3 1 0 0 0 0 0 0 0 0 0 0 0 0 0 0 0 0 0 0
0 0 0 0 0 0 0 0 0 0 0 0 1 1 1 2 2 3 3 4 4 5 6 7 8 9 8 6 4 2 1 0 0 0 0 0 0 0 0 0 0 0 0 0 0 0 0 0 0
0 0 0 0 0 0 0 0 0 0 0 0 0 0 1 1 2 2 2 3 4 5 6 8 10 10 8 5 3 1 0 0 0 0 0 0 0 0 0 0 0 0 0 0 0 0 0 0 0
0 0 0 0 0 0 0 0 0 0 0 1 1 1 1 1 2 2 2 2 4 5 7 9 10 9 6 3 1 1 0 0 0 0 0 0 0 0 0 0 0 0 0 0 0 0 0 0 0
0 0 0 0 0 0 0 0 0 1 1 1 1 1 1 1 2 2 2 3 5 6 8 9 9 6 3 1 0 0 0 0 0 0 0 0 0 0 0 0 0 0 0 0 0 0 0 0 0
0 0 0 0 0 0 0 0 0 1 1 2 2 2 2 2 2 2 3 4 5 6 7 7 5 3 1 0 0 0 0 0 0 0 0 0 0 0 0 0 0 0 0 0 0 0 0 0 0
0 0 0 0 0 0 0 0 1 1 2 2 2 2 2 2 2 2 2 3 4 4 4 3 2 1 0 0 0 0 0 0 0 0 0 0 0 0 0 0 0 0 0 0 0 0 0 0 0
0 0 0 0 0 0 0 0 1 1 2 2 1 1 1 2 2 2 2 2 2 2 1 1 0 0 0 0 0 0 0 0 0 0 0 0 0 0 0 0 0 0 0 0 0 0 0 0 0
0 0 0 0 0 0 0 0 1 1 1 1 1 1 1 1 1 1 1 1 0 0 0 0 0 0 0 0 0 0 0 0 0 0 0 0 0 0 0 0 0 0 0 0 0 0 0 0 0
0 0 0 0 0 0 0 0 1 1 1 1 1 1 1 1 1 1 0 0 0 0 0 0 0 0 0 0 0 0 0 0 0 0 0 0 0 0 0 0 0 0 0 0 0 0 0 0 0
0 0 0 0 0 0 0 0 1 1 1 1 1 1 1 1 0 0 0 0 0 0 0 0 0 0 0 0 0 0 0 0 0 0 0 0 0 0 0 0 0 0 0 0 0 0 0 0 0
Wind_Speed
2 5 3 3 6 5 4 5 3 2 1 2 5 5 5 4 4 3 1 7 10 11 8 11 14 15 16 16 16 15 15 15 14 14 13 13 12 11 11 11 10 10 10 10 9 8 8 9 9
3 4 3 6 6 1 7 6 4 3 3 4 4 4 3 1 1 4 4 6 11 11 7 9 14 14 16 16 16 15 16 16 14 14 13 12 12 11 10 10 10 9 9 9 8 7 7 8 8
3 3 5 6 5 6 6 4 4 1 3 4 3 3 2 2 4 6 5 10 10 9 7 10 16 14 15 16 16 15 15 15 14 13 13 12 11 10 9 10 10 9 9 8 7 6 6 6 7
4 5 6 5 5 7 6 4 2 5 2 3 4 3 1 3 6 6 11 12 11 8 7 10 15 15 15 15 15 15 15 14 13 13 12 11 10 9 9 9 9 9 8 7 6 5 5 6 6
5 5 5 1 5 7 7 5 3 5 4 4 5 2 0 3 7 11 13 12 12 8 6 8 14 15 15 15 15 14 14 13 12 12 11 10 9 9 8 8 8 8 7 6 5 4 5 5 5
5 6 5 4 6 7 6 5 4 5 4 5 6 3 2 4 9 11 11 10 9 9 7 7 14 16 15 15 15 14 13 13 12 11 10 9 8 8 8 7 8 7 7 6 4 3 3 4 4
5 5 5 5 4 5 5 3 6 7 6 7 9 5 2 4 9 12 10 8 7 7 7 6 7 11 14 14 14 13 13 12 11 10 9 8 8 8 9 8 7 7 6 5 3 1 2 2 2
5 6 4 4 4 5 3 1 3 7 6 5 9 8 7 8 10 11 9 7 7 7 7 6 6 6 7 9 14 15 13 12 12 11 11 10 9 9 9 7 7 7 6 5 3 1 1 2 3
4 5 4 6 6 4 1 1 1 3 5 3 5 6 6 13 14 11 8 6 7 9 8 7 6 6 6 6 10 12 13 12 11 9 11 9 4 4 5 7 7 7 6 5 3 1 2 3 5
5 4 8 6 5 2 1 1 2 3 3 2 2 3 11 16 16 15 14 13 13 13 13 9 8 8 7 7 6 4 5 5 5 4 5 4 3 3 4 5 8 8 6 5 3 2 2 4 3
7 7 6 5 4 2 3 3 2 6 6 10 10 12 18 17 16 16 15 15 15 14 13 12 11 9 9 6 5 3 3 3 4 5 4 3 3 2 2 1 2 2 3 1 1 3 3 3 3
5 5 4 4 2 2 4 3 3 7 12 8 9 16 22 21 21 19 18 16 13 12 14 13 13 11 10 7 6 5 4 4 4 4 5 3 2 2 2 1 1 1 1 1 1 2 3 3 4
4 4 5 6 6 5 5 5 5 9 10 4 10 15 20 22 20 16 14 13 12 14 15 14 14 13 11 8 6 7 6 6 5 4 5 5 3 3 3 2 1 1 1 1 1 2 4 5 6
4 4 4 6 7 4 4 4 5 10 6 7 13 18 20 20 19 15 14 14 14 15 15 13 14 13 11 9 8 7 6 6 5 5 5 6 4 4 3 3 2 1 1 2 3 4 5 5 5
2 2 5 4 3 3 2 3 6 6 5 10 14 17 16 15 15 18 18 17 15 14 13 13 14 12 11 10 8 6 5 5 5 4 5 5 4 4 3 2 2 3 4 5 5 6 5 5 5
1 1 2 5 2 2 3 5 7 3 7 10 12 14 15 14 15 16 15 13 12 12 12 12 13 12 11 9 7 5 4 4 4 3 4 5 4 3 3 3 3 4 4 4 5 4 5 4 4
4 1 2 4 3 3 2 5 7 3 7 10 11 14 15 13 13 14 14 14 13 13 12 12 11 11 10 8 6 4 4 4 2 3 3 3 4 5 5 5 5 6 5 5 4 4 3 3 3
3 2 1 3 3 5 3 6 8 4 7 10 10 12 13 15 21 15 13 13 12 12 11 12 10 9 8 6 4 3 4 4 3 2 4 6 6 8 8 7 7 7 6 5 4 5 4 3 2
3 2 2 5 3 2 5 7 9 3 5 8 9 11 14 20 18 10 10 10 11 12 12 12 11 9 8 6 5 4 4 3 3 4 6 9 10 10 8 7 7 6 5 3 3 3 5 4 2
3 2 3 6 4 1 4 8 9 4 5 8 11 13 16 16 10 11 12 12 13 13 12 11 11 9 8 6 4 5 6 5 4 4 7 8 10 9 8 8 6 6 5 4 2 2 2 3 4
4 4 4 5 6 5 3 8 9 5 2 4 6 8 10 13 13 13 12 11 9 11 12 10 10 9 9 9 7 6 6 5 4 5 5 6 8 9 8 7 6 6 5 4 3 3 4 3 3
5 6 5 2 1 5 1 4 10 6 7 4 5 6 8 9 11 11 10 9 9 9 8 9 10 10 10 10 10 8 5 4 4 4 4 6 8 8 7 7 7 6 5 5 4 4 3 4 3
7 3 5 3 3 2 2 3 10 6 7 8 8 8 9 8 7 7 7 6 6 7 9 10 12 12 10 9 10 9 8 6 6 6 7 6 6 6 7 8 7 6 5 5 5 4 4 3 3
4 5 5 5 5 2 5 5 8 4 5 9 10 11 10 6 2 3 6 9 9 10 11 12 13 12 10 10 9 9 11 11 10 8 7 5 4 5 6 7 6 5 5 5 5 4 5 3 3
5 5 4 4 3 7 3 4 8 3 4 6 10 10 8 6 7 9 11 11 11 11 11 11 13 12 9 10 9 9 10 11 10 8 7 7 5 4 5 5 5 4 4 4 4 3 3 3 3
6 10 8 6 6 5 1 6 5 2 4 6 7 8 9 10 10 11 11 11 10 11 10 10 11 11 9 9 9 9 9 7 7 7 7 6 5 4 4 5 4 4 4 4 3 3 2 2 2
8 7 8 7 3 2 5 3 1 2 4 7 8 9 10 10 11 12 12 12 12 11 10 9 10 10 10 10 10 9 8 8 8 7 6 5 5 5 5 5 4 4 4 4 3 3 3 3 3
6 8 6 7 8 5 4 3 3 1 2 5 7 8 9 10 11 12 12 12 12 11 11 11 11 11 11 10 9 8 8 7 7 7 7 6 5 5 5 5 5 5 5 5 5 5 4 5 3
4 4 5 5 6 8 5 5 2 3 2 5 6 7 9 10 10 10 11 11 12 12 12 11 11 11 11 10 9 9 8 8 8 8 8 7 6 6 6 6 6 6 6 6 6 5 5 5 4
4 4 7 5 4 5 5 4 4 2 6 8 8 8 9 9 9 10 10 11 11 11 11 11 10 10 9 9 9 9 9 9 10 9 8 8 8 6 6 6 7 7 6 5 5 5 5 5 5
Wind_Direction
155 129 111 70 50 38 287 266 257 290 226 154 135 137 157 167 190 221 107 134 136 140 150 155 152 147 145 142 137 133 130 127 125 122 121 121 122 123 125 127 127 126 121 116 110 105 96 90 87
151 129 73 61 84 10 276 261 263 240 185 115 101 101 116 159 90 120 134 145 140 140 142 151 151 149 147 144 140 137 136 134 132 130 129 130 131 132 135 137 138 136 131 127 123 117 105 97 92
136 90 90 79 130 191 243 256 233 165 135 108 90 72 137 182 152 162 163 145 135 137 139 156 152 150 148 146 144 142 140 139 138 137 138 137 138 139 144 149 151 149 146 142 139 129 114 101 89
96 59 57 89 208 227 233 254 158 126 108 84 100 98 118 169 162 161 144 145 138 141 144 156 154 152 150 150 149 146 143 142 142 144 145 145 146 148 152 156 159 159 158 155 148 135 115 97 83
63 81 77 93 237 247 243 245 185 155 165 125 116 149 142 115 124 136 146 151 148 145 146 155 156 155 154 153 152 149 148 146 146 150 153 153 154 155 155 156 158 161 162 162 157 136 107 87 75
63 76 107 211 245 257 258 228 190 189 171 133 128 151 222 145 138 150 153 152 150 149 147 155 161 160 159 158 156 155 153 152 153 155 157 157 157 157 157 158 163 169 174 173 170 132 91 72 62
115 119 173 202 234 260 253 217 195 195 181 168 140 149 224 181 164 151 148 140 141 151 152 156 164 165 165 162 162 162 160 159 159 160 162 163 166 168 170 171 175 179 181 181 182 129 64 39 30
137 124 175 213 216 242 260 292 221 185 195 156 133 165 205 195 158 141 131 129 140 156 165 163 162 160 162 167 172 170 167 166 167 170 174 178 182 185 186 182 186 188 192 198 205 208 334 337 343
106 95 200 217 204 226 257 4 274 171 138 147 165 189 201 153 145 138 134 138 157 174 179 175 169 164 162 167 180 176 174 174 176 179 185 185 187 189 191 191 197 200 203 211 217 236 306 344 355
119 163 222 222 209 203 277 237 206 124 134 181 187 155 142 151 158 162 168 174 179 185 188 186 181 174 169 177 174 168 169 172 174 176 185 175 170 185 193 202 206 208 207 215 223 258 357 25 7
167 193 229 246 241 264 284 268 190 142 200 209 193 166 154 165 171 177 182 185 188 187 188 191 189 183 179 179 169 165 160 163 172 180 180 164 160 177 196 190 228 223 207 180 38 38 44 30 3
177 229 231 259 243 273 256 245 200 198 216 203 180 167 164 175 182 187 188 190 187 186 193 192 191 189 188 182 177 174 173 175 179 182 173 160 160 180 195 200 195 150 127 145 78 59 50 40 31
210 248 247 257 282 256 246 227 219 235 236 162 152 168 179 184 189 192 190 190 187 190 194 193 193 193 190 185 184 185 187 186 183 177 174 169 173 187 192 194 175 158 146 139 74 67 79 74 63
224 238 276 284 280 266 242 245 206 250 218 162 166 181 189 192 189 187 189 192 194 195 195 191 193 194 190 189 189 189 190 185 179 180 180 179 182 186 188 183 155 113 99 99 92 91 92 82 74
265 282 316 288 262 260 193 296 231 253 167 174 183 189 194 200 193 196 195 195 196 196 193 191 193 191 190 190 188 185 187 180 182 183 180 183 185 190 186 160 113 87 85 91 92 87 81 78 73
19 69 321 296 303 300 154 264 276 269 175 190 192 194 199 206 204 204 200 196 194 191 190 193 195 190 189 186 180 175 172 174 179 173 174 182 181 167 144 115 97 92 87 84 88 81 75 65 72
28 118 221 300 8 34 83 259 279 274 194 205 200 200 204 210 217 210 203 199 194 191 187 190 194 185 184 178 169 163 151 151 150 150 155 150 127 112 102 92 84 81 75 65 73 58 69 62 63
226 212 235 279 324 14 345 276 285 270 213 220 215 209 208 213 220 209 202 200 194 189 187 189 191 178 169 160 145 127 96 81 77 99 113 108 99 98 98 92 84 80 74 62 62 72 58 51 32
194 188 271 275 288 326 295 290 290 279 235 239 236 223 217 222 224 206 201 199 192 189 188 188 187 174 162 160 155 134 103 73 58 70 92 100 102 102 100 98 89 88 90 98 106 89 68 39 0
192 232 285 298 335 316 302 294 287 262 226 231 236 233 227 230 223 208 205 200 198 194 188 184 181 169 164 157 131 112 109 96 78 79 84 95 103 105 105 107 107 107 109 106 99 116 105 46 20
192 197 228 261 334 345 313 313 304 302 302 282 268 257 245 230 221 214 210 208 197 194 187 178 167 157 144 130 112 101 88 81 86 90 94 97 102 100 104 110 112 113 110 106 97 107 121 116 46
232 223 205 218 3 300 32 299 295 310 321 309 315 310 283 254 229 215 206 199 192 186 160 152 143 134 129 128 126 126 126 126 120 116 109 104 100 104 110 112 111 113 115 116 109 99 114 122 110
211 203 190 201 187 277 293 181 281 331 319 319 331 333 313 291 253 223 199 174 147 131 128 125 121 118 118 117 122 119 116 116 120 119 114 103 100 104 111 114 118 121 122 120 115 113 108 107 122
165 76 48 50 87 245 235 169 269 296 307 320 336 342 331 328 13 86 91 99 99 103 110 115 116 111 110 108 110 121 131 137 139 135 124 111 102 101 110 117 117 121 123 123 124 124 123 123 125
133 108 23 357 30 242 239 182 243 301 342 343 345 351 1 32 71 85 89 93 98 100 105 110 112 112 113 114 119 132 138 139 139 134 129 130 123 116 118 118 119 123 128 132 130 122 123 131 135
177 148 162 194 211 254 226 220 244 34 26 37 34 30 44 61 73 79 81 84 85 86 89 98 105 110 113 115 118 122 125 123 125 131 139 137 130 125 126 125 126 127 129 125 109 88 83 83 80
162 190 181 151 173 216 263 256 283 87 49 50 49 50 53 62 73 76 74 72 72 72 72 82 94 97 99 104 107 109 112 118 125 125 124 120 117 119 122 119 108 96 91 95 92 75 65 65 57
160 153 111 136 155 210 258 237 221 212 52 58 55 57 57 62 68 71 72 72 72 72 72 72 79 86 88 90 95 100 99 106 112 114 112 107 103 103 109 100 93 87 84 87 86 81 77 74 54
121 131 133 136 161 164 214 255 267 246 157 100 74 60 59 63 66 70 74 74 77 75 74 74 76 80 82 83 85 88 88 93 95 97 96 94 90 92 92 93 91 88 87 91 93 87 73 62 36
134 157 146 153 202 180 174 232 334 132 112 101 85 69 64 68 73 77 80 80 80 81 82 81 81 82 83 86 86 86 87 86 85 84 82 84 83 82 89 96 97 97 95 91 87 74 55 38 11